Weather History for Renton, WA

Change the Weather History Date:

Thursday, July 25, 2013

  Actual Average Record
Temperature  
Mean Temperature 70 °F -  
Max Temperature 84 °F 77 °F 91 °F (1996)
Min Temperature 55 °F 57 °F 54 °F (2003)
Cooling Degree Days 4    
Growing Degree Days 20 (Base 50)    
Moisture  
Dew Point 52 °F    
Average Humidity 54    
Maximum Humidity 84    
Minimum Humidity 28    
Precipitation  
Precipitation 0.00 in - - ()
Sea Level Pressure  
Sea Level Pressure 30.09 in    
Wind  
Wind Speed 5 mph (NW)    
Max Wind Speed 10 mph    
Max Gust Speed -    
Visibility 9 miles    
Events      
Averages and records for this station are not official NWS values.
T = Trace of Precipitation, MM = Missing Value Source: NWS Daily Summary

Daily Weather History Graph

Daily Weather History Graph

Search for Another Location

Airport:

Trip Planner

Search our weather history database for the weather conditions in past years. The results will help you decide how hot, cold, wet, or windy it might be!

Date:

Astronomy

Jul. 25, 2013 Rise Set
Actual Time 5:38 AM PDT 8:51 PM PDT
Civil Twilight 5:01 AM PDT 9:28 PM PDT
Nautical Twilight 4:13 AM PDT 10:16 PM PDT
Astronomical Twilight 3:12 AM PDT 11:16 PM PDT
Moon 10:13 PM PDT (7/25) 9:33 AM PDT (7/25)
Length of Visible Light 16h 26m
Length of Day
15h 12m
Waning Gibbous, 87% of the Moon is Illuminated
Jul 25
Waning Gibbous
Jul 29
Last Quarter
Aug 6
New
Aug 14
First Quarter
Aug 20
Full

Hourly Weather History & Observations

Time (PDT) Temp. Heat Index Dew Point Humidity Pressure Visibility Wind Dir Wind Speed Gust Speed Precip Events Conditions
12:53 AM 68.0 °F - 53.1 °F 59% 30.04 in 9.0 mi NNW 6.9 mph - N/A   Clear
1:53 AM 66.0 °F - 54.0 °F 65% 30.05 in 9.0 mi Calm Calm - N/A   Clear
2:53 AM 60.1 °F - 50.0 °F 69% 30.06 in 9.0 mi Calm Calm - N/A   Clear
3:53 AM 57.9 °F - 50.0 °F 75% 30.07 in 9.0 mi SE 3.5 mph - N/A   Clear
4:53 AM 57.0 °F - 50.0 °F 77% 30.07 in 9.0 mi Calm Calm - N/A   Clear
5:53 AM 55.9 °F - 51.1 °F 84% 30.08 in 8.0 mi East 3.5 mph - N/A   Clear
6:53 AM 57.9 °F - 51.1 °F 78% 30.10 in 8.0 mi Calm Calm - N/A   Clear
7:53 AM 61.0 °F - 53.1 °F 75% 30.11 in 8.0 mi SSE 4.6 mph - N/A   Clear
8:53 AM 64.0 °F - 54.0 °F 70% 30.12 in 8.0 mi Calm Calm - N/A   Clear
9:53 AM 69.1 °F - 54.0 °F 58% 30.11 in 8.0 mi North 5.8 mph - N/A   Clear
10:53 AM 73.9 °F - 54.0 °F 50% 30.12 in 8.0 mi NW 4.6 mph - N/A   Clear
11:53 AM 75.9 °F - 50.0 °F 40% 30.12 in 9.0 mi WNW 6.9 mph - N/A   Clear
12:53 PM 77.0 °F - 53.1 °F 43% 30.12 in 10.0 mi NW 9.2 mph - N/A   Clear
1:53 PM 80.1 °F - 52.0 °F 38% 30.11 in 10.0 mi NW 8.1 mph - N/A   Clear
2:53 PM 82.0 °F - 50.0 °F 33% 30.10 in 10.0 mi WNW 8.1 mph - N/A   Clear
3:53 PM 84.0 °F - 48.0 °F 28% 30.09 in 10.0 mi NW 8.1 mph - N/A   Clear
4:53 PM 84.0 °F - 48.9 °F 29% 30.08 in 10.0 mi NW 9.2 mph - N/A   Clear
5:53 PM 84.0 °F - 51.1 °F 32% 30.07 in 10.0 mi NW 10.4 mph - N/A   Clear
6:53 PM 82.9 °F - 52.0 °F 34% 30.07 in 10.0 mi NNW 5.8 mph - N/A   Clear
7:53 PM 81.0 °F 80.5 °F 54.0 °F 39% 30.06 in 10.0 mi NW 5.8 mph - N/A   Clear
8:53 PM 75.9 °F - 55.0 °F 48% 30.07 in 10.0 mi NNW 6.9 mph - N/A   Clear
9:53 PM 73.0 °F - 52.0 °F 48% 30.08 in 10.0 mi NNW 8.1 mph - N/A   Clear
10:53 PM 70.0 °F - 53.1 °F 55% 30.09 in 10.0 mi NNW 5.8 mph - N/A   Clear
11:53 PM 68.0 °F - 55.0 °F 63% 30.09 in 10.0 mi NNW 6.9 mph - N/A   Clear